Regional Weather Roundup
Issued by NWS

Home | Current Version | Previous Version | Text Only | Print | Product List | Glossary Off
Versions: 1 2 3 4 5 6 7 8 9 10 11 12 13 14 15 16 17 18 19 20 21 22 23 24 25 26 27 28 29 30 31 32 33 34 35 36 37 38 39 40 41 42 43 44 45 46 47 48 49 50

000
ASUS43 KIND 251909
RWRIN

WEATHER ROUNDUP FOR INDIANA
NATIONAL WEATHER SERVICE INDIANAPOLIS IN
300 PM EDT WED MAY 25 2016

NOTE: "FAIR" INDICATES FEW OR NO CLOUDS BELOW 12,000 FEET WITH NO
SIGNIFICANT WEATHER AND/OR OBSTRUCTIONS TO VISIBILITY.

* - STATION DOES NOT REPORT WEATHER SUCH AS PRECIPITATION OR FOG.

+ - STATION NOT QUALITY CONTROLLED BY THE NATIONAL WEATHER SERVICE.
    USE DATA WITH CAUTION...ESPECIALLY DEWPOINT AND RELATIVE
    HUMIDITY OBSERVATIONS.

INZ001>003-010>013-019-020-252000-
NORTHWEST INDIANA

CITY           SKY/WX    TMP DP  RH WIND       PRES   REMARKS
GARY /AIRPORT/ PTSUNNY   86  68  54 S12       29.97F
KNOX *+          N/A     84  43  23 SW8         N/A
LA PORTE +     MOSUNNY   87  58  38 SW6G16    29.99F
MICHIGAN CITY+ MOSUNNY   84  61  45 S7        29.98F
MONTICELLO +   MOSUNNY   85  54  34 SW12G21   29.99F HAZE
RENSSELAER +   MOSUNNY   86  54  32 S12G22    29.98F
VALPARAISO     SUNNY     86  60  41 SE10      29.98F

$$

LMZ046-743>745-252000-
SOUTHERN LAKE MICHIGAN

STATION/POSITION TIME  TEMP    WIND        PRES    WAVE
                       AIR SEA DIR/SP/G            HT
                 (UTC) (F)     (DEG/KT/KT) (MB)    (FT)
BURNS HARBOR     1800   82     190/  8/ 14 1015.6F
MICHIGAN CITY    1800   80     200/  6/  8   N/A
5NW MICH CITY    1900   66 61   40/  6/  8   N/A     0

$$

INZ004-005-014>016-021>024-252000-
NORTH CENTRAL INDIANA

CITY           SKY/WX    TMP DP  RH WIND       PRES   REMARKS
ELKHART        MOSUNNY   82  64  54 S12       30.01F
GOSHEN         MOSUNNY   83  57  41 S14       30.01F
LOGANSPORT +   SUNNY     84  59  42 SW15G21   30.01F
PERU/GRISSOM   MOSUNNY   84  61  46 SW14G21   30.01F
ROCHESTER +    SUNNY     86  59  39 S6        30.01F
SOUTH BEND     MOSUNNY   82  59  45 S12       30.00F
WARSAW +       SUNNY     82  59  44 S8        30.02F

$$

INZ006>009-017-018-025>027-252000-
NORTHEAST INDIANA

CITY           SKY/WX    TMP DP  RH WIND       PRES   REMARKS
ANGOLA *+      PTSUNNY   81  61  50 S12       30.04F
AUBURN +       MOSUNNY   81  55  41 S6        30.05F
FORT WAYNE     PTSUNNY   83  59  44 S12       30.04F
HUNTINGTON +   PTSUNNY  N/A N/A N/A S6        30.02F

$$

INZ028-029-035-036-043>045-051>053-252000-
WEST CENTRAL INDIANA

CITY           SKY/WX    TMP DP  RH WIND       PRES   REMARKS
CRAWFORDSVL +  MOSUNNY   82  62  50 S14G24    30.03F
GREENCASTLE +  MOSUNNY   81  68  65 S5G17     30.05F
LAFAYETTE      MOSUNNY   83  60  45 SW12G22   30.00F
TERRE HAUTE    MOSUNNY   82  64  54 SW17      30.03F

$$

INZ030>032-037>040-046>048-054>057-064-065-252000-
CENTRAL INDIANA

CITY           SKY/WX    TMP DP  RH WIND       PRES   REMARKS
ANDERSON       MOSUNNY   82  59  44 SW12G23   30.06
CP ATTERBURY + MOSUNNY   82  63  51 S12G17    30.06F
COLUMBUS       SUNNY     82  63  51 SW17      30.06F
FISHERS *+     PTSUNNY   82  66  57 SW8       30.04
FRANKFORT +      N/A     85  45  24 SW13G23   30.04F
GREENWOOD *+   MOSUNNY   84  61  45 W10G17    30.05
INDIANAPOLIS   PTSUNNY   82  61  48 SW14G21   30.03F
-EAGLE CREEK   MOSUNNY   82  61  48 S8G20     30.03F
KOKOMO *+      SUNNY     84  63  48 SW16      30.02F
MARION +       MOSUNNY   83  58  41 S16       30.04S
SHELBYVILLE    PTSUNNY   84  61  45 SW16      30.04F
ZIONSVILLE +   MOSUNNY   82  62  49 SW13G22   30.05F

$$

INZ033-034-041-042-049-050-058-059-252000-
EAST CENTRAL INDIANA

CITY           SKY/WX    TMP DP  RH WIND       PRES   REMARKS
MUNCIE         MOSUNNY   86  58  38 SW12G22   30.04F

$$

INZ060-061-067>069-081>083-085>088-252000-
SOUTHWEST INDIANA

CITY           SKY/WX    TMP DP  RH WIND       PRES   REMARKS
EVANSVILLE     LGT RAIN  71  67  87 SW10      30.10F
HUNTINGBURG *+ CLOUDY    75  64  69 W7        30.09F
WASHINGTON +   MOSUNNY   78  66  66 S10G16    30.05F

$$

INZ062-063-066-070>080-084-089>092-252000-
SOUTH CENTRAL AND SOUTHEAST INDIANA

CITY           SKY/WX    TMP DP  RH WIND       PRES   REMARKS
BEDFORD +      CLOUDY    81  72  74 SW12      30.07F
BLOOMINGTON    CLOUDY    83  62  49 SW12G18   30.06F
MADISON *+     MOSUNNY   81  61  50 S10       30.12S
NORTH VERNON + SUNNY     82  68  61 S10       30.09F
SEYMOUR +      SUNNY     84  64  51 S13G18    30.07F

$$





USA.gov is the U.S. government's official web portal to all federal, state and local government web resources and services.